Location: Syracuse
(43.0480°N, 76.1480°W)
Time: 14:13:49
(UTC-04:00)

Daily predictions for brighter satellites

Satellite Brightness Start Highest point End
(mag) Time Altitude Azimuth Time Altitude Azimuth Time Altitude Azimuth
USA 234 3.6 19:09:46 10° SE 19:16:19 74° SW 19:22:54 10° NW
SKYMED 2 3.6 19:14:12 10° NNE 19:18:34 89° ESE 19:22:54 10° SSW
Cosmos 1953 Rocket 3.5 19:16:36 10° N 19:20:57 88° ENE 19:25:16 10° S
Thor Agena Rocket 3.9 19:16:11 10° NNE 19:21:10 42° E 19:26:03 10° S
BREEZE-M DEB 4.2 19:08:46 10° WNW 19:21:26 75° SW 19:25:00 10° SE
FREGAT/IRIS 3.5 19:22:38 10° SE 19:25:19 29° ENE 19:28:01 10° N
Cosmos 990 Rocket 4.4 19:20:21 10° NNW 19:25:30 70° WSW 19:30:35 10° S
Resurs 01 Rocket 3.2 19:25:21 10° ESE 19:28:07 17° ENE 19:30:53 10° NNE
Cosmos 2058 Rocket 3.0 19:23:56 10° S 19:28:15 70° E 19:32:38 10° NNE
Cosmos 1340 Rocket 3.6 19:25:01 10° NNW 19:29:01 57° W 19:33:01 10° S
Meteor 2-13 Rocket 4.4 19:23:10 10° S 19:29:12 71° E 19:35:15 10° NNE
SL-08 ROCKET BODY 4.4 19:23:51 10° S 19:29:41 69° E 19:35:39 10° NNE
Cosmos 1814 Rocket 4.4 19:24:34 10° SSW 19:29:42 70° WNW 19:34:51 10° NNE
Cosmos 2184 Rocket 4.2 19:29:57 10° SSE 19:36:03 53° E 19:42:13 10° NNE
SPOT 3 Rocket 4.2 19:33:20 10° S 19:38:23 59° WSW 19:43:32 10° NNW
Cosmos 1125 Rocket 3.8 19:34:34 10° N 19:39:42 49° ENE 19:44:50 10° SE
Meteor 1-24 Rocket 3.8 19:35:11 10° N 19:41:07 63° ENE 19:46:49 10° SSE
NOAA 12 4.3 19:37:02 10° S 19:42:16 79° WSW 19:47:35 10° NNW
Cosmos 1656 Rocket 4.1 19:40:08 10° NNW 19:45:45 69° WSW 19:51:15 10° SSE
Geosat 4.0 19:42:06 10° SE 19:47:07 73° ENE 19:52:09 10° NNW
Milstar 3 Cent rocket 4.0 19:44:32 10° SSW 19:47:09 13° S 19:49:29 10° SE
ATLAS 2AS CENTAUR R/B 4.0 19:40:24 10° NNW 19:47:29 32° NE 19:53:09 14° E
Envisat 4.1 19:44:01 11° ESE 19:47:40 24° ENE 19:51:39 10° NNE
Cosmos 1356 4.3 19:45:26 10° NNE 19:48:31 29° ENE 19:51:09 13° SE
FENGYUN 3A 3.9 19:46:41 10° S 19:52:02 77° WSW 19:57:26 10° NNW
Cosmos 2327 Rocket 4.4 19:47:33 10° S 19:53:35 66° E 19:59:36 10° NNE
NOSS 3-1 (A) 4.3 19:49:45 10° NW 19:57:24 79° WSW 20:05:51 10° SSE
Cosmos 841 Rocket 4.2 19:56:17 10° SW 20:01:19 56° WNW 20:06:24 10° NNE
H-2A R/B 2.6 19:57:50 10° SSE 20:01:34 81° ENE 20:05:21 10° N
Cosmos 1544 2.9 19:58:46 10° S 20:02:21 70° E 20:05:58 10° NNE
SJ-6B 2.7 19:59:16 10° SSE 20:03:14 75° ENE 20:07:08 10° N
Cosmos 1953 3.0 20:05:09 10° SSE 20:08:44 31° E 20:12:20 10° NNE
Cosmos 540 Rocket 3.4 20:05:16 10° SSW 20:10:22 89° ESE 20:15:31 10° NNE
Cosmos 292 Rocket 4.0 20:10:58 10° S 20:15:34 45° ESE 20:20:13 10° NNE
SL-27 R/B 2.5 20:12:22 10° S 20:15:53 57° ESE 20:19:30 10° NNE
BREEZE-M DEB (TANK) 4.1 20:12:32 10° WNW 20:16:27 52° NNE 20:25:06 19° E
Cosmos 1076 Rocket 4.4 20:14:24 10° NNE 20:18:10 27° ENE 20:18:25 27° E
In-Cosmos 22 4.5 20:16:10 10° NNW 20:21:52 73° W 20:27:37 10° S
SJ 16-02 1.2 20:17:34 10° NNW 20:21:58 76° ENE 20:24:56 20° SSE
BREEZE M DEB (TANK) 3.6 20:16:15 10° W 20:22:07 35° NNW 20:23:46 20° NE
COSMOS 2406 3.7 20:17:07 10° SW 20:22:47 65° WNW 20:28:31 10° NNE
HJ-1C 3.9 20:20:32 10° S 20:23:50 61° WSW 20:27:11 10° NNW
Cosmos 1674 2.8 20:21:28 10° N 20:25:06 47° ENE 20:25:44 42° ESE
Cosmos 1766 4.4 20:25:18 10° SSW 20:29:03 45° WNW 20:32:49 10° N
Cosmos 2369 4.0 20:26:40 10° NNW 20:32:09 48° ENE 20:34:09 34° ESE
Resurs 1-3 3.5 20:33:13 29° SSE 20:35:26 72° ENE 20:39:49 10° N
ISS -3.8 20:37:12 10° WSW 20:40:28 77° NNW 20:40:34 76° N
Cosmos 2154 Rocket 4.0 20:35:21 10° S 20:41:35 88° W 20:47:54 10° N
MOS 1-B Rocket 3.8 20:37:07 16° SSE 20:41:57 76° ENE 20:47:34 10° N
BREEZE-M DEB (TANK) 3.2 20:36:10 10° WSW 20:47:01 81° SSE 20:48:25 45° E
Meteor 1-21 Rocket 4.1 20:42:34 10° N 20:48:20 83° E 20:51:42 25° SSE
Cosmos 1733 4.5 20:50:20 29° NNE 20:50:20 29° NNE 20:52:19 10° NNE
Spot 2 Rocket 3.4 20:50:59 28° S 20:53:42 84° WSW 20:58:47 10° NNW
Cosmos 1758 3.8 20:50:23 10° SSW 20:54:21 60° W 20:58:19 10° N
Cosmos 2341 Rocket 3.9 20:50:36 10° S 20:56:48 86° E 21:03:04 10° N
Meteor 2-21 4.4 20:54:21 20° S 20:58:37 63° E 21:04:39 10° NNE
SJ-11-01 4.2 20:58:56 65° E 20:59:01 65° ENE 21:03:43 10° N
Cosmos 2082 Rocket 4.2 21:03:55 14° NE 21:03:55 14° NE 21:04:38 10° NE
ATLAS 5 CENTAUR R/B 4.1 20:57:35 10° SSW 20:57:40 10° SSW 20:57:40 10° SSW
GP-B 3.9 20:59:26 10° N 21:03:43 50° W 21:08:00 10° SSW
Resurs 01 Rocket 2.3 21:01:55 26° SSW 21:04:11 52° W 21:08:31 10° NNW
Cosmos 2278 3.6 21:00:18 10° NNW 21:06:01 84° ENE 21:07:09 59° SE
KORONAS-FOTON 4.4 21:05:54 10° NNW 21:08:59 53° NW 21:08:59 53° NW
ERS-1 Rocket 4.2 21:12:21 28° NNE 21:12:21 28° NNE 21:15:16 10° N
Cosmos 1939 Rocket 3.5 21:12:33 49° NNW 21:12:33 49° NNW 21:15:31 10° NNW
Meteor 2-15 Rocket 4.3 21:05:35 10° N 21:11:38 66° E 21:12:14 62° ESE
Cosmos 2366 rocket 4.1 21:14:28 55° ENE 21:14:28 55° ENE 21:20:11 10° NNE
Cosmos 1656 3.5 21:09:59 10° NNW 21:15:42 83° ENE 21:16:07 76° SE
Cosmos 2322 Rocket 4.2 21:12:34 10° N 21:14:57 15° NE 21:14:57 15° NE
Cosmos 1470 4.3 21:21:42 32° NNW 21:21:42 32° NNW 21:24:03 10° N
Cosmos 2218 Rocket 3.8 21:20:07 69° ESE 21:20:28 70° E 21:26:38 10° NNE
Cosmos 1697 Rocket 2.7 21:17:39 10° NNW 21:22:57 65° NE 21:22:57 65° NE
Cosmos 2285 Rocket 4.0 21:17:42 10° SSW 21:24:08 82° WNW 21:30:38 10° NNE
Cosmos 1809 Rocket 4.5 21:18:49 10° SSW 21:24:57 79° W 21:31:06 10° N
Cosmos 1818 4.3 21:20:06 10° NNW 21:24:30 41° NNE 21:24:30 41° NNE
Cosmos 1980 Rocket 3.0 21:20:19 10° NNW 21:24:38 39° NNE 21:24:38 39° NNE
Envisat 3.9 21:24:14 29° SSW 21:26:24 45° W 21:31:16 10° NNW
Meteor 2-16 Rocket 4.5 21:35:32 65° NNE 21:35:32 65° NNE 21:40:44 10° N
ATLAS 2AS CENTAUR R/B 2.8 21:31:24 10° NW 21:39:26 83° WSW 21:40:36 67° SSE
SL-8 Rocket 4.1 21:38:36 39° SSW 21:40:59 69° W 21:47:08 10° N
Meteor 2-14 Rocket 4.5 21:43:33 70° SW 21:44:06 76° W 21:50:16 10° N
ARGOS 4.3 21:46:44 35° N 21:46:44 35° N 21:49:56 10° N
Cosmos 1727 Rocket 4.1 21:39:03 10° N 21:44:38 70° NNE 21:44:38 70° NNE
H-2A R/B 3.9 21:57:09 21° N 21:57:09 21° N 21:58:57 10° N
SL-16 R/B 4.0 21:50:28 10° N 21:53:07 22° NNE 21:53:07 22° NNE
Cosmos 2082 Rocket 4.2 22:45:39 23° NNW 22:45:39 23° NNW 22:48:26 10° N
Cosmos 2322 Rocket 4.4 22:55:06 10° NNW 22:56:45 20° NNW 22:56:45 20° NNW
